Flag for Norway Weather past 2 weeks in Ålesund, Norway

Now
50 °F

Sunny.


Feels Like: 44 °F
Forecast: 43 / 52 °F
Wind: 16 mph from Northeast

Location: Alesund / Vigra


UV Index: 0 (Low)

Visibility: 10 mi


Pressure: 30.21 "Hg

Humidity: 76%

Dew point: 43 °F

Location of ÅlesundLocation

Historic Weather in Ålesund

°F

Ålesund temperature yesterday

Maximum temperature yesterday: 54 °F (at 3:20 PM)
Minimum temperature yesterday: 37 °F (at 11:50 PM)
Average temperature yesterday: 46 °F

Past Weeks' High & Low Weather Summary

 TemperatureHumidityPressure
High54 °F (Apr 20, 3:20 PM)100% (Apr 7, 5:20 AM)30.30 "Hg (Apr 7, 5:20 AM)
Low34 °F (Apr 14, 11:20 PM)42% (Apr 18, 11:50 AM)29.00 "Hg (Apr 13, 2:50 AM)
Average44 °F77%29.79 "Hg
* Reported Apr 6 4:20 PM — Apr 21 4:50 PM, Ålesund, Weather by CustomWeather, © 2014

Note: Actual official high and low records may vary slightly from our data, if they occured in-between our weather recording intervals... More about our weather records

Advertising

Historic Weather Conditions — Data for Previous 24 hours

 ConditionsComfort  
Time TempWeatherWind HumidityBarometerVisibility
4:50 PM
Apr 21
50 °FPassing clouds.14 mph71%30.21 "HgN/A
4:20 PM50 °FPassing clouds.15 mph71%30.21 "HgN/A
3:50 PM50 °FPassing clouds.15 mph76%30.21 "HgN/A
3:20 PM52 °FPassing clouds.10 mph72%30.21 "HgN/A
2:50 PM50 °FSunny.7 mph71%30.21 "Hg10 mi
2:20 PM48 °FSunny.9 mph76%30.21 "Hg10 mi
1:50 PM48 °FSunny.9 mph76%30.21 "Hg10 mi
1:20 PM50 °FSunny.7 mph76%30.21 "Hg10 mi
12:50 PM48 °FSunny.6 mph76%30.21 "Hg10 mi
12:20 PM48 °FSunny.5 mph71%30.21 "Hg10 mi
11:50 AM48 °FPassing clouds.5 mph76%30.21 "HgN/A
11:20 AM46 °FPassing clouds.3 mph76%30.21 "HgN/A
10:50 AM45 °FPassing clouds.5 mph81%30.21 "HgN/A
10:20 AM45 °FPassing clouds.5 mph81%30.21 "HgN/A
9:20 AM41 °FPartly sunny.2 mph93%30.21 "HgN/A
8:20 AM41 °FPartly sunny.2 mph93%30.21 "HgN/A
7:50 AM39 °FPartly sunny.1 mph100%30.18 "HgN/A
7:20 AM41 °FPartly sunny.2 mph93%30.18 "HgN/A
6:50 AM39 °FPassing clouds.2 mph100%30.18 "HgN/A
6:20 AM39 °FLow clouds.6 mph100%30.18 "Hg3 mi
5:50 AM39 °FFog.7 mph100%30.18 "Hg1 mi
5:20 AM39 °FFog.8 mph93%30.18 "Hg0 mi
4:50 AM37 °FChilly.6 mph87%30.15 "HgN/A
4:20 AM36 °FChilly.6 mph93%30.15 "HgN/A
3:50 AM39 °FChilly.8 mph81%30.15 "HgN/A
3:20 AM37 °FChilly.8 mph87%30.15 "HgN/A
2:50 AM37 °FChilly.6 mph81%30.15 "HgN/A
2:20 AM39 °FChilly.6 mph81%30.15 "HgN/A
1:50 AM37 °FChilly.8 mph87%30.15 "HgN/A
1:20 AM36 °FChilly.8 mph93%30.15 "HgN/A
12:50 AM37 °FChilly.7 mph87%30.15 "HgN/A
12:20 AM37 °FChilly.7 mph87%30.15 "HgN/A
11:50 PM
Apr 20
37 °FClear.6 mph87%30.15 "Hg10 mi
10:50 PM41 °FClear.2 mph81%30.15 "Hg10 mi
10:20 PM39 °FClear.1 mph87%30.15 "Hg10 mi
9:50 PM41 °FSunny.1 mph81%30.15 "Hg10 mi
9:20 PM45 °FSunny.2 mph71%30.15 "Hg10 mi
8:50 PM48 °FSunny.2 mph62%30.15 "Hg10 mi
8:20 PM48 °FSunny.2 mph66%30.15 "Hg10 mi
7:50 PM48 °FSunny.2 mph71%30.15 "Hg10 mi
7:20 PM52 °FSunny.3 mph54%30.15 "Hg10 mi
6:50 PM50 °FSunny.6 mph54%30.15 "Hg10 mi
6:20 PM50 °FSunny.6 mph58%30.15 "Hg10 mi
Weather by CustomWeather, © 2014

See weather overview